COSMOS 2251 DEB, 35980

Orbit data source: Space-Track

COSMOS 2251 DEB, 35980 is space debris in LEO originally from a launch on Wed, 16 Jun 1993 UTC launched from the Plesetsk Missile And Space Complex (PKMTR). The debris from Iridium 33, an American commercial communications satellite, has been tracked extensively since its accidental collision with the defunct Russian satellite Cosmos 2251 in 2009. This event, occurring at high speed in low Earth orbit (LEO), generated thousands of pieces of space debris, significantly increasing the risk of further collisions. The Iridium 33 debris cloud has impacted space traffic management and orbital debris mitigation strategies, making it a subject of ongoing study in space situational awareness.

Loading next visibility...
Identifier
35980, 1993-036AVW
Orbit
LEO
Country
Flag of CISCIS
Related business
Manufacturer
Unknown
Mission
Spacecraft
Bus & Motor
Unknown
Mass
Unknown
Launch date (UTC)
1993-06-16 (33 years ago)
Launch vehicle
Unknown
Launch site
Plesetsk Missile And Space Complex (PKMTR)
Object type
Payload
Rocket body
Debris
Shape & HBR
Unknown shape, 0.1 m
Radar Cross Section
Small (<0.1 m²)

Expand to show TLE details & history
Last TLE update: 5 days ago

TLE from 5 days ago
0 COSMOS 2251 DEB
1 35980U 93036AVW 25349.06922068  .00004733  00000-0  98660-3 0  9991
2 35980  73.9111 118.2073 0053965 252.4580 107.0684 14.59339190615209
Epoch: 2025-12-15T01:39Z
TLE epoch observation values (Epoch: 2025-12-15T01:39:40.666Z)
Latitude
-0.00005°
Longitude
9.31476°
Altitude
709.334 km
Speed
7.495 km/s
True Right ascension
07h 52m 49s
True Declination
0° 00' 00"
Sunlit
Object was in full shadow at epoch
Visualization orbit readout
Latitude
Unknown
Longitude
Unknown
Altitude
Unknown
Speed
Unknown
Apparent Right ascension
Unknown
Apparent Declination
Unknown
Sunlit
N/A
Visualization observer readout
Local Sidereal Time
07:37:50
Azimuth
Unknown
Elevation
Unknown
Doppler factor
Unknown
Orbital elements
Apogee altitude
731.076 km
Perigee altitude
654.759 km
Semi-major axis
7,071.054 km
Eccentricity
0.0054
Inclination
73.9111°
RAAN
118.2073°
Arg. of periapsis
252.458°
True anomaly
107.65838°
Mean anomaly
107.0684°
Eccentric anomaly
107.36351°
Mean motion
3.6502 °/min
Orbital period
98.62 mins
BSTAR
0.0009866
Loading maneuver chart data...
Computing Atmospheric mass density...

Documentation

Showing up to 5 results
|